Photometre #253[Standard_N] Modena AOT

File : 20210608_253.hum

08/06/2021,04:29:51,TEMP=22.4,BA=4.84,STAT.h
08/06/2021,04:33:54,TEMP=22.4,BA=4.84,STAT.h
08/06/2021,04:38:18,TEMP=22.4,BA=4.84,STAT.h
08/06/2021,04:43:39,TEMP=22.4,BA=4.88,STAT.h
08/06/2021,04:50:02,TEMP=22.4,BA=4.88,STAT.h
08/06/2021,04:57:59,TEMP=22.4,BA=4.92,STAT.h
08/06/2021,05:07:33,TEMP=22.4,BA=4.96,STAT.h
08/06/2021,05:12:09,TEMP=22.4,BA=5.00,STAT.h
08/06/2021,05:17:25,TEMP=22.4,BA=5.00,STAT.h
08/06/2021,05:22:57,TEMP=22.4,BA=5.08,STAT.h
08/06/2021,05:29:23,TEMP=22.4,BA=5.08,STAT.h
08/06/2021,05:36:41,TEMP=22.4,BA=5.12,STAT.h
08/06/2021,05:45:03,TEMP=22.4,BA=5.20,STAT.h
08/06/2021,05:54:55,TEMP=22.4,BA=5.20,STAT.h
08/06/2021,06:06:19,TEMP=22.4,BA=5.20,STAT.h
08/06/2021,06:19:49,TEMP=22.4,BA=5.20,STAT.h
08/06/2021,06:36:32,TEMP=22.4,BA=5.24,STAT.h
08/06/2021,07:10:47,TEMP=20.5,BA=5.28,STAT.B
08/06/2021,07:11:08,TEMP=20.5,BA=5.28,STAT.s
08/06/2021,07:15:29,TEMP=20.8,BA=5.28,STAT.E
08/06/2021,07:16:33,TEMP=20.8,BA=5.28,STAT.s
08/06/2021,07:30:29,TEMP=21.7,BA=5.32,STAT.D
08/06/2021,07:31:00,TEMP=21.7,BA=5.32,STAT.s
08/06/2021,07:45:29,TEMP=22.9,BA=5.32,STAT.D
08/06/2021,07:46:01,TEMP=22.9,BA=5.32,STAT.s
08/06/2021,08:00:29,TEMP=23.5,BA=5.36,STAT.D
08/06/2021,08:01:00,TEMP=23.5,BA=5.36,STAT.s
08/06/2021,08:15:28,TEMP=24.6,BA=5.36,STAT.E
08/06/2021,08:16:00,TEMP=24.6,BA=5.36,STAT.s
08/06/2021,08:30:29,TEMP=24.0,BA=5.32,STAT.D
08/06/2021,08:31:32,TEMP=24.0,BA=5.32,STAT.s
08/06/2021,08:45:28,TEMP=24.1,BA=5.32,STAT.D
08/06/2021,08:46:00,TEMP=24.1,BA=5.32,STAT.s
08/06/2021,09:00:29,TEMP=25.0,BA=5.36,STAT.D
08/06/2021,09:01:00,TEMP=25.0,BA=5.36,STAT.s
08/06/2021,09:15:28,TEMP=26.0,BA=5.36,STAT.F
08/06/2021,09:16:00,TEMP=26.0,BA=5.36,STAT.s
08/06/2021,09:30:29,TEMP=26.2,BA=5.36,STAT.D
08/06/2021,09:45:29,TEMP=26.4,BA=5.36,STAT.D
08/06/2021,09:46:37,TEMP=26.4,BA=5.36,STAT.s
08/06/2021,10:00:29,TEMP=26.5,BA=5.40,STAT.D
08/06/2021,10:01:01,TEMP=26.5,BA=5.40,STAT.s
08/06/2021,10:15:29,TEMP=27.4,BA=5.40,STAT.F
08/06/2021,10:16:01,TEMP=27.4,BA=5.40,STAT.s
08/06/2021,10:30:29,TEMP=27.6,BA=5.40,STAT.D
08/06/2021,10:31:01,TEMP=27.6,BA=5.40,STAT.s
08/06/2021,10:45:29,TEMP=27.4,BA=5.36,STAT.D
08/06/2021,10:46:02,TEMP=27.4,BA=5.36,STAT.s
08/06/2021,11:00:29,TEMP=28.3,BA=5.40,STAT.D
08/06/2021,11:01:01,TEMP=28.3,BA=5.40,STAT.s
08/06/2021,11:15:29,TEMP=28.0,BA=5.40,STAT.E
08/06/2021,11:16:01,TEMP=28.0,BA=5.40,STAT.s
08/06/2021,11:30:33,TEMP=28.8,BA=5.36,STAT.D
08/06/2021,11:45:28,TEMP=28.6,BA=5.36,STAT.D
08/06/2021,12:00:29,TEMP=29.5,BA=5.40,STAT.D
08/06/2021,12:15:30,TEMP=30.3,BA=5.40,STAT.F
08/06/2021,12:30:28,TEMP=30.0,BA=5.32,STAT.D
08/06/2021,12:45:28,TEMP=29.7,BA=5.36,STAT.D
08/06/2021,12:46:00,TEMP=29.7,BA=5.36,STAT.s
08/06/2021,13:00:28,TEMP=30.5,BA=5.36,STAT.D
08/06/2021,13:15:28,TEMP=30.0,BA=5.36,STAT.F
08/06/2021,13:16:33,TEMP=30.0,BA=5.36,STAT.s
08/06/2021,13:30:28,TEMP=30.3,BA=5.40,STAT.D
08/06/2021,13:31:00,TEMP=30.3,BA=5.40,STAT.s
08/06/2021,13:45:28,TEMP=30.5,BA=5.36,STAT.D
08/06/2021,13:45:59,TEMP=30.5,BA=5.36,STAT.s
08/06/2021,14:00:28,TEMP=30.7,BA=5.36,STAT.D
08/06/2021,14:15:29,TEMP=30.4,BA=5.36,STAT.E
08/06/2021,14:16:44,TEMP=30.1,BA=5.36,STAT.s
08/06/2021,14:30:27,TEMP=28.8,BA=5.36,STAT.D
08/06/2021,14:45:09,TEMP=28.7,BA=5.32,STAT.h
08/06/2021,15:00:09,TEMP=28.7,BA=5.32,STAT.h
08/06/2021,15:15:18,TEMP=28.7,BA=5.32,STAT.h
08/06/2021,15:19:51,TEMP=28.7,BA=5.32,STAT.h
08/06/2021,15:53:46,TEMP=28.7,BA=5.40,STAT.h
08/06/2021,16:10:46,TEMP=20.0,BA=5.40,STAT.A
08/06/2021,16:24:25,TEMP=20.5,BA=5.40,STAT.A
08/06/2021,16:35:50,TEMP=20.7,BA=5.40,STAT.A
08/06/2021,16:45:32,TEMP=21.0,BA=5.40,STAT.A
08/06/2021,16:53:54,TEMP=21.2,BA=5.40,STAT.C
08/06/2021,17:01:12,TEMP=21.3,BA=5.40,STAT.A
08/06/2021,17:07:38,TEMP=21.4,BA=5.40,STAT.A
08/06/2021,17:13:20,TEMP=21.5,BA=5.36,STAT.A
08/06/2021,17:18:26,TEMP=21.6,BA=5.36,STAT.A
08/06/2021,17:23:02,TEMP=21.6,BA=5.32,STAT.B
08/06/2021,17:32:45,TEMP=21.7,BA=5.28,STAT.A
08/06/2021,17:40:32,TEMP=21.6,BA=5.28,STAT.A
08/06/2021,17:46:55,TEMP=21.6,BA=5.28,STAT.A
08/06/2021,17:52:16,TEMP=21.5,BA=5.24,STAT.A
08/06/2021,17:56:49,TEMP=21.4,BA=5.24,STAT.A
08/06/2021,18:00:43,TEMP=21.4,BA=5.24,STAT.A